Location: Klein M�hlingen
(51.9472°N, 11.7453°E)
Time: 22:28:38
(UTC+00:00)

Meteor 2-3 Rocket - Pass Details

Date: 09 April 2020
Orbit: 842 x 885 km, 81.2° (Epoch: 23 May)

Event Time Altitude Azimuth Distance (km) Brightness Sun altitude
Rises 21:46:38 0° 343° (NNW) 3,484 8.2 -27.2°
Reaches altitude 10° 21:49:10 10° 338° (NNW) 2,535 7.2 -27.3°
Maximum altitude 21:54:38 46° 267° (W) 1,151 4.4 -27.6°
Enters shadow 21:55:25 43° 243° (WSW) 1,195 4.3 -27.7°
